Regional Weather Roundup
Issued by NWS

Home | Current Version | Previous Version | Text Only | Print | Product List | Glossary On
Versions: 1 2 3 4 5 6 7 8 9 10 11 12 13 14 15 16 17 18 19 20 21 22 23 24 25 26 27 28 29 30 31 32 33 34 35 36 37 38 39 40 41 42 43 44 45 46 47 48
000
ASUS42 KKEY 250410
RWRKEY

FLORIDA REGIONAL WEATHER ROUNDUP FOR THE FLORIDA KEYS
NATIONAL WEATHER SERVICE KEY WEST FLORIDA
1100 PM EST WED DEC 24 2014

...SOUTH FLORIDA AND THE KEYS...

CITY           SKY/WX    TMP DP  RH WIND       PRES   REMARKS
FORT MYERS     LGT RAIN  70  69  97 NW15      29.97R
SW REGIONAL AP HVY RAIN  70  68  93 NW7G22    29.97R FOG
NAPLES         TSTM      72  71  97 SW14G26   29.95F FOG
MIAMI          MOCLDY    77  74  90 S10       29.98F
WEST KENDALL   MOCLDY    78  74  87 S7        29.99S
HOMESTEAD      MOCLDY    75  75 100 S7        29.99S
MARATHON       CLOUDY    78  77  96 S6        29.99R
BOCA CHICA NAS TSTM      76  73  91 S13       29.99R
KEY WEST INTL  PTCLDY    77  74  90 S10       29.98F THUNDER

...INTERNATIONAL WEATHER...

CITY           SKY/WX    TMP DP  RH WIND       PRES   REMARKS
NASSAU BAHAMAS PTCLDY    75  73  94 S7        30.05R
CANCUN MEXICO  CLOUDY    73  70  88 N20       30.03R
COZUMEL MEXICO PTCLDY    72  70  94 N15       30.04R

ADJACENT COASTAL WATERS...

STATION/POSITION TIME  SKY/WX   TEMP    WIND        PRES    WAVE
                                AIR SEA DIR/SP/G            HT/PER
                 (UTC)          (F)     (DEG/KT/KT) (MB)    (FT/S)
PULASKI SHOAL LI 0300            74     180/  6/  7 1015.3R
SAND KEY         0339            78     180/ 15/ 19 1015.3R
SOMBRERO KEY     0400            79     190/ 20/ 22 1015.9F
LONG KEY         0400            78 76  180/ 11/ 12 1016.2R
MOLASSES REEF    0400            79 78  180/ 18/ 19 1015.5F
FOWEY ROCKS      NOT AVBL
Buoy 42080       NOT AVBL

$$



USA.gov is the U.S. government's official web portal to all federal, state and local government web resources and services.